[[{"header":{"parameterUnit":"m.s-1","parameterCategory":1,"la1":30.2991,"la2":30.254,"lo1":-89.0895,"lo2":-89.0444,"dy":0.0017,"dx":0.0017,"nx":28,"ny":28,"refTime":"2024-05-22T21:00:00:Z","depth":0,"parameterNumber":2,"parameterNumberName":"U-component_of_WINDS"},"data":[0,0,0,0,0,0,0,0,0,0,0,0,0,0,0,0,0,0,0,0,0,0,0,0,0,0,0,0,0,0,0,0,0,0,0,0,0,0,0,0,0,0,0,0,0,0,0,0,0,0,0,0,0,0,0,0,0,0,-0.6344,-0.6343,0,-0.6263,-0.6262,-0.6261,-0.6225,-0.6225,-0.6225,-0.6225,-0.6141,-0.6139,-0.6137,0,0,0,0,0,0,0,0,0,0,0,0,0,-0.6467,-0.6465,-0.6344,-0.6343,-0.6342,-0.6263,-0.6262,-0.6261,-0.6225,-0.6225,-0.6225,-0.6226,-0.6142,-0.6139,-0.6136,0,0,0,0,0,0,0,0,0,0,0,0,0,-0.6403,-0.6464,-0.6345,-0.6315,-0.6311,-0.6264,-0.6262,-0.6261,-0.6225,-0.6225,-0.6225,-0.6226,-0.6143,-0.6139,-0.6136,-0.6111,0,0,-0.6125,-0.6124,0,0,0,0,0,0,0,0,-0.6406,-0.6398,-0.632,-0.6317,-0.6313,-0.6255,-0.6275,-0.6211,-0.6225,-0.6258,-0.6226,-0.6226,-0.6179,-0.6172,-0.6157,-0.6107,-0.6104,-0.6125,-0.6123,-0.6121,-0.612,0,0,0,0,0,0,0,-0.6411,-0.6402,-0.6312,-0.6319,-0.6315,-0.6305,-0.6296,-0.6262,-0.6218,-0.6255,-0.6252,-0.6243,-0.6177,-0.616,-0.6154,-0.6102,-0.6125,-0.6122,-0.612,-0.6118,-0.6029,-0.6029,0,0,0,0,0,0,-0.642,-0.6406,-0.6315,-0.631,-0.6361,-0.6303,-0.6293,-0.6273,-0.6219,-0.6211,-0.6243,-0.6242,-0.6166,-0.6159,-0.6151,-0.6119,-0.6121,-0.6118,-0.6116,-0.6029,-0.6029,-0.6029,0,0,0,0,0,0,-0.6423,-0.6413,-0.6318,-0.6357,-0.6344,-0.6301,-0.6279,-0.6271,-0.6255,-0.621,-0.6202,-0.6234,-0.6166,-0.6156,-0.6122,-0.6115,-0.6116,-0.6113,-0.603,-0.6029,-0.6029,-0.6054,0,0,0,0,0,0,-0.6427,-0.6414,-0.6404,-0.6357,-0.6342,-0.629,-0.6278,-0.627,-0.6249,-0.6246,-0.6199,-0.6192,-0.6165,-0.6127,-0.6118,-0.611,-0.6111,-0.603,-0.6029,-0.6029,-0.6053,-0.6054,-0.6055,0,0,0,0,0,-0.6431,-0.6414,-0.6404,-0.6393,-0.6329,-0.629,-0.6281,-0.6252,-0.6249,-0.6238,-0.621,-0.6193,-0.6118,-0.6124,-0.6113,-0.6105,-0.603,-0.603,-0.6029,-0.6053,-0.6054,-0.6055,0,0,0,0,0,0,-0.6461,-0.6407,-0.6395,-0.6362,-0.6331,-0.6284,-0.627,-0.6254,-0.6222,-0.6221,-0.6186,-0.6175,-0.6144,-0.6121,-0.6129,-0.6078,-0.6072,-0.607,-0.6094,-0.6095,-0.6096,-0.6102,-0.6108,0,0,0,0,0,-0.6464,-0.6437,-0.6391,-0.6366,-0.6351,-0.6313,-0.6295,-0.6275,-0.6241,-0.6227,-0.6196,-0.6163,-0.6132,-0.6112,-0.6081,-0.605,-0.6039,-0.6039,-0.604,-0.6041,-0.6039,-0.602,-0.602,-0.6027,-0.6027,-0.6027,0,0,-0.6469,-0.6436,-0.6421,-0.6371,-0.6345,-0.6317,-0.6302,-0.6274,-0.6253,-0.6223,-0.6188,-0.6164,-0.6125,-0.6093,-0.6076,-0.6072,-0.6034,-0.604,-0.6041,-0.6038,-0.602,-0.6019,-0.6019,-0.6026,-0.6026,-0.6026,0,0,-0.6464,-0.6437,-0.6413,-0.6387,-0.6347,-0.6323,-0.6317,-0.6272,-0.6255,-0.622,-0.6197,-0.6172,-0.6119,-0.6092,-0.6072,-0.6058,-0.6042,-0.6049,-0.6053,-0.6036,-0.6036,-0.6035,-0.603,-0.6029,-0.6047,-0.6047,-0.6047,0,-0.6476,-0.6433,-0.6403,-0.6376,-0.6355,-0.6327,-0.6303,-0.6279,-0.6231,-0.6217,-0.6213,-0.6147,-0.6118,-0.6079,-0.6076,-0.606,-0.6052,-0.6054,-0.6038,-0.6037,-0.6036,-0.6031,-0.6029,-0.6049,-0.6048,-0.6048,-0.6048,0,-0.6449,-0.6421,-0.6406,-0.6361,-0.6338,-0.6312,-0.6278,-0.6259,-0.6241,-0.6217,-0.6182,-0.6147,-0.6109,-0.6098,-0.608,-0.6056,-0.6055,-0.6045,-0.6039,-0.6037,-0.6032,-0.6029,-0.605,-0.605,-0.6049,-0.6049,0,0,-0.646,-0.6399,-0.6394,-0.6374,-0.6328,-0.6305,-0.6278,-0.6241,-0.6225,-0.6193,-0.617,-0.6126,-0.6117,-0.6094,-0.6073,-0.6058,-0.605,-0.6051,-0.6049,-0.6051,-0.6021,-0.6028,-0.6026,-0.6039,-0.6039,-0.6038,-0.6024,0,-0.6449,-0.64,-0.6372,-0.6335,-0.6307,-0.6282,-0.6258,-0.6228,-0.6204,-0.6178,-0.6152,-0.6122,-0.6112,-0.6098,-0.6082,-0.6054,-0.6043,-0.6055,-0.6016,-0.6015,-0.6026,-0.6023,-0.603,-0.6019,-0.6022,-0.6021,-0.6021,0,-0.6429,-0.6398,-0.6358,-0.6316,-0.6303,-0.6283,-0.6247,-0.6222,-0.6187,-0.6171,-0.6146,-0.6125,-0.6096,-0.6093,-0.6052,-0.6061,-0.6043,-0.6027,-0.6026,-0.6021,-0.6018,-0.6017,-0.6014,-0.6012,-0.6017,-0.6018,-0.6018,0,-0.6441,-0.6389,-0.6358,-0.6341,-0.6291,-0.6278,-0.6256,-0.6221,-0.6201,-0.617,-0.6156,-0.6122,-0.6103,-0.6077,-0.6047,-0.6048,-0.6009,-0.6003,-0.5995,-0.5996,-0.5987,-0.5988,-0.5981,-0.5977,-0.5977,-0.5977,-0.5977,0,-0.643,-0.6407,-0.6363,-0.6344,-0.6316,-0.6285,-0.6259,-0.6236,-0.6205,-0.6181,-0.6157,-0.6135,-0.6098,-0.6071,-0.6048,-0.6018,-0.6009,-0.5995,-0.5989,-0.5997,-0.5999,-0.5985,-0.5985,-0.5977,-0.5977,-0.5977,-0.5977,0,-0.6438,-0.6408,-0.6373,-0.6329,-0.6317,-0.6299,-0.6261,-0.6242,-0.6218,-0.6188,-0.6179,-0.6141,-0.6108,-0.6077,-0.6033,-0.6018,-0.5987,-0.598,-0.5999,-0.5996,-0.5989,-0.599,-0.5972,-0.5968,-0.5968,-0.5968,-0.5968,0,-0.6433,-0.6415,-0.6369,-0.6351,-0.6331,-0.6302,-0.6282,-0.625,-0.623,-0.6189,-0.6175,-0.6141,-0.6111,-0.6061,-0.6029,-0.5996,-0.5987,-0.5983,-0.5981,-0.599,-0.5986,-0.5987,-0.5985,-0.5983,-0.5984,-0.5984,-0.5984,0,-0.6428,-0.6414,-0.6385,-0.6351,-0.6328,-0.6299,-0.627,-0.6257,-0.622,-0.6198,-0.6165,-0.6143,-0.6099,-0.6065,-0.6028,-0.6006,-0.5989,-0.5985,-0.5981,-0.5988,-0.6,-0.5993,-0.6001,-0.5985,-0.5985,-0.5985,-0.5985,-0.5985,-0.6429,-0.6411,-0.6376,-0.6345,-0.632,-0.6294,-0.6274,-0.6247,-0.6219,-0.6181,-0.6164,-0.6131,-0.6097,-0.6045,-0.6024,-0.5997,-0.5992,-0.5987,-0.5986,-0.5985,-0.5986,-0.6005,-0.599,-0.599,-0.599,-0.599,-0.599,0,-0.6422,-0.6399,-0.637,-0.6331,-0.6306,-0.6293,-0.626,-0.6241,-0.6212,-0.6181,-0.6154,-0.6116,-0.6083,-0.605,-0.6015,-0.6,-0.5991,-0.5992,-0.5993,-0.5988,-0.5992,-0.5999,-0.6,-0.6,-0.6,-0.6,-0.6,-0.6,-0.6416,-0.6385,-0.6367,-0.6324,-0.63,-0.6267,-0.625,-0.6225,-0.6201,-0.616,-0.6133,-0.6111,-0.608,-0.6043,-0.6013,-0.6004,-0.5992,-0.5995,-0.5984,-0.5988,-0.5987,-0.5987,-0.5993,-0.5993,-0.5993,-0.5981,-0.5981,-0.5981]},{"header":{"parameterUnit":"m.s-1","parameterCategory":1,"la1":30.2991,"la2":30.254,"lo1":-89.0895,"lo2":-89.0444,"dy":0.0017,"dx":0.0017,"nx":28,"ny":28,"refTime":"2024-05-22T21:00:00:Z","depth":0,"parameterNumber":3,"parameterNumberName":"V-component_of_WINDS"},"data":[0,0,0,0,0,0,0,0,0,0,0,0,0,0,0,0,0,0,0,0,0,0,0,0,0,0,0,0,0,0,0,0,0,0,0,0,0,0,0,0,0,0,0,0,0,0,0,0,0,0,0,0,0,0,0,0,0,0,5.2174,5.2173,0,5.208,5.2079,5.2078,5.2,5.1999,5.1998,5.1997,5.1895,5.1893,5.1891,0,0,0,0,0,0,0,0,0,0,0,0,0,5.2283,5.2282,5.2174,5.2173,5.2172,5.208,5.2079,5.2078,5.2,5.1999,5.1998,5.1997,5.1896,5.1893,5.1891,0,0,0,0,0,0,0,0,0,0,0,0,0,5.2217,5.2281,5.2175,5.2122,5.2117,5.2081,5.2079,5.2077,5.2,5.1999,5.1997,5.1996,5.1896,5.1893,5.1891,5.1897,0,0,5.1882,5.188,0,0,0,0,0,0,0,0,5.2221,5.2213,5.2131,5.2126,5.2119,5.205,5.208,5.2017,5.2,5.2044,5.1997,5.1996,5.1947,5.194,5.1925,5.1893,5.1888,5.1881,5.188,5.1878,5.1878,0,0,0,0,0,0,0,5.2226,5.2217,5.2137,5.213,5.2123,5.2102,5.2092,5.2068,5.2003,5.204,5.2034,5.2024,5.1944,5.1928,5.1922,5.1887,5.1881,5.1879,5.1877,5.1876,5.1858,5.186,0,0,0,0,0,0,5.2239,5.2221,5.214,5.2134,5.2168,5.2101,5.2089,5.2074,5.2004,5.1992,5.2026,5.2021,5.1934,5.1925,5.1918,5.1923,5.1878,5.1876,5.1874,5.1857,5.1859,5.186,0,0,0,0,0,0,5.2242,5.2232,5.2144,5.2176,5.2163,5.2101,5.2084,5.2073,5.2057,5.1993,5.198,5.2021,5.1932,5.1922,5.1904,5.1919,5.1874,5.1872,5.1856,5.1858,5.1859,5.1933,0,0,0,0,0,0,5.2245,5.2234,5.2236,5.2177,5.2162,5.2132,5.2085,5.2072,5.2052,5.2046,5.1986,5.1974,5.1931,5.1909,5.1901,5.1914,5.1869,5.1854,5.1856,5.1859,5.1929,5.1937,5.1944,0,0,0,0,0,5.2249,5.2259,5.2237,5.2227,5.2164,5.2133,5.2125,5.2076,5.2054,5.2056,5.2015,5.1976,5.1919,5.1908,5.1898,5.191,5.1853,5.1856,5.1859,5.1925,5.1936,5.1944,0,0,0,0,0,0,5.2318,5.225,5.2225,5.2215,5.2181,5.212,5.212,5.2087,5.2057,5.2052,5.1991,5.1978,5.1967,5.1936,5.1926,5.1915,5.1881,5.1882,5.1935,5.1944,5.1951,5.1959,5.1867,0,0,0,0,0,5.2333,5.2315,5.2256,5.2253,5.2238,5.2183,5.2167,5.2134,5.2095,5.2079,5.2037,5.2,5.1973,5.1957,5.1929,5.1925,5.1911,5.1929,5.1936,5.1943,5.1944,5.1942,5.195,5.187,5.187,5.187,0,0,5.2362,5.2322,5.2314,5.2266,5.2236,5.2219,5.2171,5.2153,5.214,5.2075,5.2057,5.2026,5.198,5.197,5.1963,5.1944,5.1964,5.1947,5.1952,5.195,5.1946,5.1954,5.1961,5.1872,5.1871,5.1871,0,0,5.2406,5.2374,5.237,5.2342,5.2297,5.2261,5.2261,5.2206,5.2183,5.2164,5.2117,5.2099,5.2055,5.2025,5.2004,5.2043,5.2006,5.2035,5.2074,5.2073,5.208,5.2085,5.21,5.2106,5.2037,5.2037,5.2037,0,5.2447,5.242,5.2371,5.2359,5.2339,5.2284,5.228,5.2254,5.2202,5.219,5.217,5.2116,5.2081,5.2064,5.2075,5.2059,5.2056,5.2041,5.2083,5.2088,5.2092,5.2106,5.2111,5.2041,5.2041,5.204,5.204,0,5.2473,5.2456,5.2458,5.2413,5.2394,5.2385,5.2335,5.2322,5.2291,5.2257,5.224,5.2197,5.2161,5.2154,5.2121,5.2134,5.2124,5.2095,5.2059,5.2105,5.2117,5.2121,5.2047,5.2045,5.2044,5.2043,0,0,5.2555,5.2487,5.2488,5.2469,5.2418,5.2403,5.2393,5.236,5.2351,5.2318,5.2308,5.2274,5.2248,5.2224,5.2188,5.2188,5.2223,5.2158,5.2157,5.2173,5.2236,5.2259,5.2266,5.22,5.2201,5.2201,5.2241,0,5.2591,5.2571,5.2529,5.2522,5.2506,5.2456,5.2447,5.2415,5.2384,5.2365,5.233,5.2308,5.2275,5.2261,5.2258,5.222,5.2235,5.2216,5.219,5.2189,5.2203,5.2272,5.2294,5.2334,5.2245,5.2246,5.2246,0,5.263,5.2604,5.2597,5.255,5.2542,5.2535,5.2504,5.2487,5.245,5.2428,5.2405,5.2367,5.2353,5.2322,5.2303,5.2292,5.2279,5.2259,5.2259,5.2254,5.222,5.2269,5.2345,5.2351,5.2253,5.2252,5.2252,0,5.2692,5.2655,5.2646,5.2631,5.2576,5.2573,5.255,5.2512,5.2496,5.2469,5.2458,5.2429,5.2412,5.239,5.2346,5.2327,5.2333,5.2297,5.2314,5.2315,5.2316,5.2317,5.2391,5.2308,5.2308,5.2308,5.2308,0,5.2736,5.2734,5.2674,5.2668,5.2665,5.2617,5.2614,5.2586,5.2554,5.2542,5.2496,5.2486,5.2428,5.2411,5.2376,5.2368,5.236,5.2342,5.2332,5.2346,5.2348,5.2336,5.2332,5.231,5.2309,5.2309,5.2309,0,5.2804,5.2763,5.2751,5.2702,5.269,5.269,5.2648,5.2641,5.2609,5.2595,5.2589,5.2538,5.2517,5.2471,5.2436,5.2413,5.2412,5.2395,5.2425,5.2419,5.2439,5.2439,5.2508,5.2516,5.2428,5.2429,5.243,0,5.2835,5.2833,5.2785,5.2775,5.2755,5.2739,5.2724,5.2678,5.2664,5.2625,5.2623,5.2599,5.2576,5.2544,5.2504,5.2478,5.246,5.2487,5.2455,5.247,5.2461,5.2462,5.2462,5.2493,5.2494,5.2495,5.2496,0,5.2895,5.2876,5.2857,5.2833,5.2817,5.2795,5.277,5.2764,5.2712,5.2699,5.2678,5.2661,5.2628,5.2605,5.2573,5.2548,5.2514,5.2507,5.2509,5.2523,5.2541,5.2532,5.2444,5.2505,5.2504,5.2503,5.2503,5.2502,5.2945,5.2942,5.2909,5.2891,5.2868,5.2847,5.2839,5.2809,5.2791,5.2762,5.2735,5.2717,5.2684,5.2639,5.2617,5.2602,5.2584,5.2588,5.2589,5.259,5.2597,5.2544,5.2596,5.2595,5.2595,5.2595,5.2595,0,5.3003,5.2981,5.2965,5.2933,5.292,5.2892,5.2864,5.2853,5.2839,5.2811,5.2792,5.277,5.2748,5.2708,5.2683,5.2679,5.2663,5.2674,5.2673,5.2669,5.2613,5.2614,5.2688,5.2688,5.2688,5.2688,5.2688,5.2688,5.3032,5.3026,5.3004,5.2987,5.2964,5.2948,5.2935,5.2916,5.2894,5.2872,5.2855,5.283,5.2797,5.277,5.275,5.2738,5.2732,5.2748,5.2732,5.2681,5.2672,5.2664,5.2664,5.2747,5.2747,5.2789,5.2789,5.2789]}]]